Regional Weather Roundup
Issued by NWS

Home | Current Version | Previous Version | Graphics & Text | Print | Product List | Glossary On
Versions: 1 2 3 4 5 6 7 8 9 10 11 12 13 14 15 16 17 18 19 20 21 22 23 24 25 26 27 28 29 30 31 32 33 34 35 36 37 38 39 40 41 42 43 44 45 46 47 48 49 50
000
ASUS43 KMKX 161400
RWRWI

WISCONSIN REGIONAL WEATHER ROUNDUP
NATIONAL WEATHER SERVICE MILWAUKEE/SULLIVAN WI
900 AM CDT TUE SEP 16 2014

NOTE: "FAIR" INDICATES FEW OR NO CLOUDS BELOW 12,000 FEET WITH NO
SIGNIFICANT WEATHER AND/OR OBSTRUCTIONS TO VISIBILITY.

WIZ001-002-006>008-014>016-023>028-161500-
NORTHWEST WISCONSIN

CITY           SKY/WX    TMP DP  RH WIND       PRES   REMARKS
SUPERIOR ARPT  SUNNY     47  41  78 SW7       30.09F
ASHLAND        SUNNY     52  39  61 SW13G22   30.09F
HAYWARD        SUNNY     47  40  76 S7        30.14F
SIREN          SUNNY     50  39  67 SW7       30.14F
RICE LAKE      SUNNY     44  40  89 CALM      30.18F
LADYSMITH      PTSUNNY   42  40  92 CALM      30.18F
EAU CLAIRE     NOT AVBL
MENOMONIE      SUNNY     45  42  90 CALM      30.18F
NEW RICHMOND   SUNNY     46  43  86 SW7       30.18S
OSCEOLA        SUNNY     45  44  97 CALM      30.20S
$$

WIZ003>005-009-010-017-018-161500-
NORTH CENTRAL WISCONSIN

CITY           SKY/WX    TMP DP  RH WIND       PRES   REMARKS
WOODRUFF       SUNNY     49  40  73 W8        30.13S
RHINELANDER    MOSUNNY   48  38  68 W10       30.15S
EAGLE RIVER    PTSUNNY   45  38  78 W9        30.12F
LAND O LAKES   MOSUNNY   47  39  73 SW5       30.12F
PHILLIPS       PTSUNNY   45  38  77 SW7       30.14F
TOMAHAWK       SUNNY     44  39  82 CALM      30.16S
MEDFORD        SUNNY     45  41  85 CALM      30.17S
MERRILL        PTSUNNY   43  40  87 W3        30.17S
$$

WIZ029-030-035-036-043>047-161500-
CENTRAL WISCONSIN

CITY           SKY/WX    TMP DP  RH WIND       PRES   REMARKS
WAUSAU         SUNNY     48  40  73 NW6       30.16F
MOSINEE        SUNNY     46  43  87 W7        30.19S
MARSHFIELD     SUNNY     49  41  74 W7        30.18F
STEVENS POINT  SUNNY     45  39  81 CALM      30.20S
WAUPACA        SUNNY     50  42  74 W7        30.20S
WAUTOMA        NOT AVBL
WISC RAPIDS    SUNNY     48  42  80 VRB3      30.21S
CAMP DOUGLAS   NOT AVBL
$$

WIZ011>013-019>022-031-037>040-048>050-161500-
NORTHEAST WISCONSIN

CITY           SKY/WX    TMP DP  RH WIND       PRES   REMARKS
ANTIGO         SUNNY     44  39  82 W6        30.17S
STURGEON BAY   SUNNY     48  43  81 W6        30.16S
GREEN BAY      SUNNY     50  43  77 W8        30.18S
MANITOWOC      NOT AVBL
APPLETON       SUNNY     46  41  81 W10       30.19S
CLINTONVILLE   SUNNY     46  39  76 W6        30.18S
OSHKOSH        SUNNY     50  42  74 W7        30.19S
$$

WIZ032>034-041-042-053>061-161500-
SOUTHWEST WISCONSIN

CITY           SKY/WX    TMP DP  RH WIND       PRES   REMARKS
LA CROSSE      PTSUNNY   47  45  93 S6        30.21F
SPARTA         FOG       37  37 100 CALM      30.22F VSB 1/2
VIROQUA        FAIR      47  46  97 W3        30.21S
BOSCOBEL       FOG       45  44  97 S5        30.24S VSB<1/4
PRAIRIE DU CHI FOG       44  43  96 CALM      30.24S VSB 1/4
PLATTEVILLE    CLOUDY    44  43  97 CALM      30.24S
$$

WIZ056-057-062-063-064-067-068-161500-
SOUTH CENTRAL WISCONSIN

CITY           SKY/WX    TMP DP  RH WIND       PRES   REMARKS
BARABOO/DELLS  SUNNY     46  42  83 CALM      30.21S
LONE ROCK      NOT AVBL
WATERTOWN      SUNNY     46  44  94 CALM      30.21S
MADISON        SUNNY     51  45  79 CALM      30.22R
MIDDLETON      FAIR      48  48 100 CALM      30.22S
MONROE         SUNNY     50  43  76 CALM      30.22S
JANESVILLE     SUNNY     50  46  87 CALM      30.21S
$$

WIZ051-052-058>065-066-070>072-161500-
SOUTHEAST WISCONSIN

CITY           SKY/WX    TMP DP  RH WIND       PRES   REMARKS
MILWAUKEE      SUNNY     53  43  68 W5        30.21R
WAUKESHA       NOT AVBL
MILWAUKEE/TIMM SUNNY     50  43  76 W6        30.21S
RACINE         SUNNY     53  46  77 W3        30.22S
BURLINGTON     SUNNY     46  44  93 CALM      30.21S
KENOSHA        SUNNY     52  47  83 W3        30.21S
FOND DU LAC    SUNNY     49  43  80 CALM      30.20S
SHEBOYGAN      SUNNY     52  44  74 W6        30.19S
WEST BEND      SUNNY     48  41  76 W3        30.20S
JUNEAU         SUNNY     44  43  97 SW3       30.22S
$$

LSZ147-162-161500-
LAKE SUPERIOR

STATION/POSITION TIME  TEMP    WIND        PRES    WAVE
                       AIR SEA DIR/SP/G            HT/PER
                 (UTC) (F)     (DEG/KT/KT) (MB)    (FT/S)
W MID LAKE BUOY  1250   50 47  250/ 17/ 23 1016.8F   4/ 5
DEVILS ISLAND    1300   51     240/ 22/ 25 1018.0F
PORT WING        1340   52     220/  8/ 13 1018.6F
SAXON HARBOR     1300   52     210/ 10/ 15 1019.0F
$$

LMZ867-665-643>646-161500-
LAKE MICHIGAN

STATION/POSITION TIME  TEMP    WIND        PRES    WAVE
                       AIR SEA DIR/SP/G            HT/PER
                 (UTC) (F)     (DEG/KT/KT) (MB)    (FT/S)
N MID LAKE BUOY  1250   52 59  270/ 10/ 12 1020.6S   1/ 3
NORTHPORT PIER   1300   53     280/  4/ 13 1020.7S
KEWAUNEE LAKESHO 1300   46     280/  7/  9   N/A
SHEBOYGAN LAKESH 1300   48 50  270/  8/  9 1022.6F
PORT WASHINGTON  1300   50     300/  6/  8 1023.0S
ATWATER BUOY     1300   50     290/  6/  8 1023.5S
MILWAUKEE LAKESH 1300   49     300/  5/  6   N/A
S MID LAKE BUOY  1250   58 64  350/ 12/ 14 1022.3R   2/ 4
KENOSHA   LAKESH 1300   49     300/  4/  6 1022.7S
$$

TC  - TEMPERATURE IN CELSIUS
VSB - VISIBILITY IN STATUTE MILES
WCI - WIND CHILL INDEX
HX  - HEAT INDEX




USA.gov is the U.S. government's official web portal to all federal, state and local government web resources and services.